Find Starlink 31419

NORAD ID: 59368 Int'l Des: 2024-060 Owner: SPXS Country: US Constellation: starlink operational
LEOCIRCULAR

Current View

Loading 3D Globe...

About Starlink 31419

Starlink 31419 (NORAD 59368) is a starlink constellation satellite (v2 mini) launched Mar 31, 2024 by SPXS of US. It operates in LEO, CIRCULAR orbit with a mass of 730.00 kg.

About Starlink 31419

Description loading...

Upcoming Passes

Passes for default location (London). Set your location on the main map for personalized predictions.

Altitude History

Loading altitude history...

Two-Line Element Set

1 59368U 24060W 26171.34417145 .00000869 00000-0 41092-4 0 9992
2 59368 43.0023 40.0179 0000594 293.0126 67.0663 15.27572262125765
Epoch: Jun 20, 2026 • Age: 24 hours

Current Status

Altitude 482.9 km
Velocity 7.63 km/s
Sub-Earth Point 24.24°N, 34.21°E
Launch Date Mar 31, 2024
Age 2.2 years
Type internet

Technical Details

Classification Payload
Mass 730.00 kg
Dry Mass 700.00 kg
Total Mass 730.00 kg
Length 0.30 m
Diameter 4.10 m
Span 29.00 m
Shape Box + pan
Manufacturer SPXS
Bus Type Starlink V2M
Phase Status In Orbit
Owner/State SPXS/US

Most Searched